[TLELIST] Archives

 

[TLELIST] Current TLEs

March 19th 2026 PDT

0 HST 1 20580U 90037B 26078.01202943 .00006585 00000-0 21509-3 0 9992 2 20580 28.4725 336.3997 0001574 225.3944 134.6524 15.29626908774743 0 ISS (ZARYA) 1 25544U 98067A 26078.12958500 .00009105 00000-0 17698-3 0 9992 2 25544 51.6344 25.6919 0006229 207.4819 152.5840 15.48370465557798 0 CXO 1 25867U 99040B 26079.46415603 .00001048 00000-0 00000-0 0 9996 2 25867 54.7244 119.3122 7985494 310.6329 0.3542 0.37808217 16989 ...Continue Reading

[TLELIST] Current TLEs

March 19th 2026 PDT

0 HST 1 20580U 90037B 26078.01202943 .00006585 00000-0 21509-3 0 9992 2 20580 28.4725 336.3997 0001574 225.3944 134.6524 15.29626908774743 0 ISS (ZARYA) 1 25544U 98067A 26078.12958500 .00009105 00000-0 17698-3 0 9992 2 25544 51.6344 25.6919 0006229 207.4819 152.5840 15.48370465557798 0 CXO 1 25867U 99040B 26079.46415603 .00001048 00000-0 00000-0 0 9996 2 25867 54.7244 119.3122 7985494 310.6329 0.3542 0.37808217 16989 ...Continue Reading

[TLELIST] Current TLEs

March 18th 2026 PDT

0 HST 1 20580U 90037B 26077.03336856 .00005936 00000-0 19324-3 0 9995 2 20580 28.4724 343.0766 0001638 212.8737 147.1757 15.29615021774597 0 ISS (ZARYA) 1 25544U 98067A 26077.16145852 .00007208 00000-0 14196-3 0 9995 2 25544 51.6338 30.4771 0006242 203.4545 156.6159 15.48351952557640 0 CXO 1 25867U 99040B 26079.46415603 .00001048 00000-0 00000-0 0 9996 2 25867 54.7244 119.3122 7985494 310.6329 0.3542 0.37808217 16989 ...Continue Reading

[TLELIST] Current TLEs

March 17th 2026 PDT

0 HST 1 20580U 90037B 26076.05470114 .00006491 00000-0 21207-3 0 9992 2 20580 28.4724 349.7537 0001684 201.5837 158.4688 15.29603902774440 0 ISS (ZARYA) 1 25544U 98067A 26076.19332186 .00012290 00000-0 23614-3 0 9997 2 25544 51.6337 35.2624 0006226 201.0018 159.0715 15.48337753557491 0 CXO 1 25867U 99040B 26076.82039363 .00001113 00000-0 00000-0 0 9991 2 25867 54.6484 119.4425 7986457 310.6142 0.4584 0.37802383 16978 ...Continue Reading

[TLELIST] Current TLEs

March 17th 2026 PDT

0 HST 1 20580U 90037B 26076.05470114 .00006491 00000-0 21207-3 0 9992 2 20580 28.4724 349.7537 0001684 201.5837 158.4688 15.29603902774440 0 ISS (ZARYA) 1 25544U 98067A 26076.19332186 .00012290 00000-0 23614-3 0 9997 2 25544 51.6337 35.2624 0006226 201.0018 159.0715 15.48337753557491 0 CXO 1 25867U 99040B 26076.82039363 .00001113 00000-0 00000-0 0 9991 2 25867 54.6484 119.4425 7986457 310.6142 0.4584 0.37802383 16978 ...Continue Reading

[TLELIST] Current TLEs

March 17th 2026 PDT

0 HST 1 20580U 90037B 26076.05470114 .00006491 00000-0 21207-3 0 9992 2 20580 28.4724 349.7537 0001684 201.5837 158.4688 15.29603902774440 0 ISS (ZARYA) 1 25544U 98067A 26076.19332186 .00012290 00000-0 23614-3 0 9997 2 25544 51.6337 35.2624 0006226 201.0018 159.0715 15.48337753557491 0 CXO 1 25867U 99040B 26076.82039363 .00001113 00000-0 00000-0 0 9991 2 25867 54.6484 119.4425 7986457 310.6142 0.4584 0.37802383 16978 ...Continue Reading

[TLELIST] Current TLEs

March 16th 2026 PDT

0 HST 1 20580U 90037B 26075.07602632 .00006675 00000-0 21838-3 0 9999 2 20580 28.4725 356.4312 0001720 190.3932 169.6628 15.29590693774292 0 ISS (ZARYA) 1 25544U 98067A 26075.16062931 .00008402 00000-0 16433-3 0 9992 2 25544 51.6332 40.3661 0006343 195.9803 164.0986 15.48306205557334 0 CXO 1 25867U 99040B 26076.82039363 .00001113 00000-0 00000-0 0 9991 2 25867 54.6484 119.4425 7986457 310.6142 0.4584 0.37802383 16978 ...Continue Reading

[TLELIST] Current TLEs

March 15th 2026 PDT

0 HST 1 20580U 90037B 26074.09734323 .00009139 00000-0 30180-3 0 9991 2 20580 28.4724 3.1083 0001755 179.9846 180.0750 15.29577841774144 0 ISS (ZARYA) 1 25544U 98067A 26074.19246378 .00009711 00000-0 18872-3 0 9996 2 25544 51.6330 45.1519 0006364 192.7288 167.3540 15.48288531557188 0 CXO 1 25867U 99040B 26076.82039363 .00001113 00000-0 00000-0 0 9991 2 25867 54.6484 119.4425 7986457 310.6142 0.4584 0.37802383 16978 ...Continue Reading

[TLELIST] Current TLEs

March 14th 2026 PDT

0 HST 1 20580U 90037B 26073.11865010 .00008763 00000-0 28927-3 0 9999 2 20580 28.4724 9.7854 0001781 169.7396 190.3236 15.29559924773995 0 ISS (ZARYA) 1 25544U 98067A 26072.70791847 .00011780 00000-0 22432-3 0 9993 2 25544 51.6324 52.4887 0007884 189.2977 170.7866 15.48633802556952 0 CXO 1 25867U 99040B 26074.17591503 .00001098 00000-0 00000+0 0 9997 2 25867 54.6015 119.5309 7987924 310.6410 0.3950 0.37797975 16963 ...Continue Reading

[TLELIST] Current TLEs

March 14th 2026 PDT

0 HST 1 20580U 90037B 26073.11865010 .00008763 00000-0 28927-3 0 9999 2 20580 28.4724 9.7854 0001781 169.7396 190.3236 15.29559924773995 0 ISS (ZARYA) 1 25544U 98067A 26072.70791847 .00011780 00000-0 22432-3 0 9993 2 25544 51.6324 52.4887 0007884 189.2977 170.7866 15.48633802556952 0 CXO 1 25867U 99040B 26074.17591503 .00001098 00000-0 00000+0 0 9997 2 25867 54.6015 119.5309 7987924 310.6410 0.3950 0.37797975 16963 ...Continue Reading
  • This mailing list is a public mailing list - anyone may join or leave, at any time.
  • This mailing list is announce-only.

International Space Station (ISS) / Hubble Space Telescope (HST) / Chandra X-Ray Observatory Orbital Data via EMAIL

Privacy Policy:

Private list